Weather History for Ballenas Island, BC

Change the Weather History Date:

Wednesday, November 13, 2013

  Actual Average Record
Temperature  
Mean Temperature 50 °F -  
Max Temperature 52 °F - - ()
Min Temperature 48 °F - - ()
Degree Days  
Heating Degree Days 15    
Moisture  
Dew Point 46 °F    
Average Humidity 85    
Maximum Humidity 92    
Minimum Humidity 77    
Precipitation  
Precipitation 0.00 in - - ()
Sea Level Pressure  
Sea Level Pressure 30.33 in    
Wind  
Wind Speed 4 mph ()    
Max Wind Speed 8 mph    
Max Gust Speed -    
T = Trace of Precipitation, MM = Missing Value Source: Averaged Metar Reports

Daily Weather History Graph

Daily Weather History Graph

Search for Another Location

Airport:

Trip Planner

Search our weather history database for the weather conditions in past years. The results will help you decide how hot, cold, wet, or windy it might be!

Date:

Astronomy

Nov. 13, 2013 Rise Set
Actual Time 7:24 AM PST 4:36 PM PST
Civil Twilight 6:49 AM PST 5:11 PM PST
Nautical Twilight 6:11 AM PST 5:50 PM PST
Astronomical Twilight 5:33 AM PST 6:27 PM PST
Moon 2:44 PM PST (11/13) 3:03 AM PST (11/13)
Length of Visible Light 10h 21m
Length of Day
9h 11m
Waxing Gibbous, 85% of the Moon is Illuminated
Nov 13
Waxing Gibbous
Nov 17
Full
Nov 25
Last Quarter
Dec 2
New
Dec 9
First Quarter

Hourly Weather History & Observations

Time (PST) Temp. Dew Point Humidity Pressure Visibility Wind Dir Wind Speed Gust Speed Precip Events Conditions
12:00 AM 52.5 °F 46.2 °F 79% 30.27 in - SSE 3.5 mph - N/A   Unknown
1:00 AM 50.2 °F 46.9 °F 89% 30.27 in - ESE 5.8 mph - N/A   Unknown
2:00 AM 50.2 °F 46.8 °F 88% 30.27 in - ESE 8.1 mph - N/A   Unknown
3:00 AM 50.7 °F 46.2 °F 85% 30.28 in - East 4.6 mph - N/A   Unknown
4:00 AM 51 °F 46 °F 79% 30.30 in - ESE 5.8 mph - -  
4:00 AM 51.1 °F 46.4 °F 84% 30.30 in - ESE 5.8 mph - N/A   Unknown
5:00 AM 51.1 °F 46.4 °F 84% 30.32 in - ENE 4.6 mph - N/A   Unknown
6:00 AM 49.5 °F 45.5 °F 86% 30.32 in - South 3.5 mph - N/A   Unknown
7:00 AM 49.3 °F 45.5 °F 87% 30.34 in - NNE 1.2 mph - N/A   Unknown
8:00 AM 50.2 °F 47.1 °F 89% 30.35 in - ESE 5.8 mph - N/A   Unknown
9:00 AM 52.2 °F 46.4 °F 81% 30.36 in - SE 8.1 mph - N/A   Unknown
10:00 AM 52 °F 47 °F 77% 30.37 in - East 3.5 mph - -  
10:00 AM 51.8 °F 46.9 °F 83% 30.37 in - East 3.5 mph - N/A   Unknown
11:00 AM 50.5 °F 46.6 °F 86% 30.37 in - ESE 6.9 mph - N/A   Unknown
12:00 PM 51.1 °F 47.8 °F 89% 30.37 in - East 6.9 mph - N/A   Unknown
1:00 PM 50.9 °F 47.1 °F 87% 30.37 in - ESE 8.1 mph - N/A   Unknown
2:00 PM 50.9 °F 47.7 °F 89% 30.36 in - ESE 8.1 mph - N/A   Unknown
3:00 PM 51.1 °F 46.8 °F 85% 30.35 in - ESE 8.1 mph - N/A   Unknown
4:00 PM 51 °F 46 °F 78% 30.35 in - ESE 6.9 mph - -  
4:00 PM 50.9 °F 46.2 °F 84% 30.35 in - ESE 6.9 mph - N/A   Unknown
5:00 PM 50.2 °F 46.6 °F 87% 30.35 in - ENE 3.5 mph - N/A   Unknown
6:00 PM 50.0 °F 46.9 °F 89% 30.34 in - East 3.5 mph - N/A   Unknown
7:00 PM 51.1 °F 46.0 °F 83% 30.32 in - SE 5.8 mph - N/A   Unknown
8:00 PM 50.9 °F 46.2 °F 84% 30.32 in - SE 3.5 mph - N/A   Unknown
9:00 PM 49.6 °F 45.9 °F 87% 30.32 in - Calm Calm - N/A   Unknown
10:00 PM 49 °F 46 °F 85% 30.31 in - Calm Calm - -  
10:00 PM 48.6 °F 45.9 °F 90% 30.31 in - Calm Calm - N/A   Unknown
11:00 PM 48.2 °F 46.0 °F 92% 30.30 in - West 1.2 mph - N/A   Unknown